KP4DJT-1 Weather Reports


Display with metric or nautical units.
time (UTC)temp
F
wind
direction
speed
MPH
gust
MPH
rain 1hr
in
rain 24hr
in
rain mn
in
humidity
%
barometer
mb
20260505024619 76 179 11.0 14.0 0.00 0.04 0.04 66 1000.6
20260505023619 76 193 12.0 17.0 0.00 0.04 0.04 66 1000.8
20260505022619 77 191 9.0 13.0 0.00 0.04 0.04 65 1000.6
20260505021619 77 183 14.0 21.0 0.00 0.04 0.04 65 1000.5
20260505020619 77 185 11.0 16.0 0.00 0.04 0.04 65 1000.4
20260505015619 77 194 10.0 13.0 0.00 0.04 0.04 64 1000.6
20260505014620 78 188 11.0 21.0 0.00 0.04 0.04 63 1000.6
20260505013620 78 186 10.0 17.0 0.00 0.04 0.04 63 1000.6
20260505012617 78 179 13.0 16.0 0.01 0.04 0.04 61 1000.6
20260505011620 79 185 14.0 20.0 0.01 0.04 0.04 61 1000.6
20260505010620 79 184 14.0 19.0 0.01 0.04 0.04 61 1000.7
20260505005620 79 186 11.0 16.0 0.01 0.04 0.04 60 1000.7
20260505004620 79 179 10.0 14.0 0.01 0.04 0.04 60 1000.8
20260505003617 79 178 12.0 16.0 0.01 0.04 0.04 60 1000.8
20260505002618 80 183 11.0 16.0 0.00 0.03 0.03 58 1001.1
20260505001621 80 184 10.0 14.0 0.00 0.03 0.03 58 1001.1
20260505000622 80 220 5.0 11.0 0.00 0.03 0.03 57 1001.2
20260504235619 81 197 12.0 19.0 0.00 0.03 0.03 57 1001.2
20260504234618 81 197 13.0 17.0 0.00 0.03 0.03 56 1001.3
20260504233618 81 184 13.0 16.0 0.00 0.03 0.03 57 1001.4
20260504232618 81 186 10.0 13.0 0.00 0.03 0.03 57 1001.6
20260504231621 81 190 11.0 15.0 0.00 0.03 0.03 56 1001.7